Total_Precipitation_Accumulation
1.88 2.03 2.03 2.23 2.21 2.29 2.49 2.83 2.88 3.09 3.16 3.14 2.84 2.47 2.32 2.18 2.01 2.14 2.25 2.17 2.09 2.30 2.80 3.22 3.13 2.91 2.62 2.59 2.48 2.13 1.78 1.63 1.44 1.14 1.03 1.12 1.12 1.03 0.94 0.87 0.79 0.73 0.60
2.45 2.66 2.70 2.72 2.50 2.48 2.74 3.00 3.11 3.64 3.61 3.48 3.00 2.69 2.43 2.34 2.14 2.06 2.27 2.42 2.14 2.10 2.47 3.14 3.45 3.24 3.02 2.97 2.77 2.34 1.94 1.73 1.59 1.20 0.97 0.99 1.07 1.07 0.99 0.94 0.82 0.69 0.57
2.86 3.02 2.98 2.87 2.81 2.79 2.99 3.20 3.37 3.55 3.40 3.27 3.11 2.88 2.65 2.40 2.10 2.09 2.14 2.35 2.25 2.12 2.36 2.74 3.17 3.25 3.28 3.30 3.06 2.67 2.11 1.77 1.53 1.25 0.97 0.90 0.93 0.96 0.95 0.95 0.88 0.69 0.50
3.01 3.32 3.13 2.95 3.23 3.07 3.24 3.66 3.68 3.71 3.69 3.48 3.28 3.02 2.78 2.53 2.08 1.97 1.96 2.25 2.59 2.23 2.36 2.67 2.84 2.94 3.36 3.57 3.47 3.19 2.65 2.10 1.63 1.35 1.11 1.05 1.04 1.00 0.97 0.90 0.88 0.71 0.49
2.92 3.21 3.10 3.13 3.19 3.46 3.50 3.27 3.78 3.87 3.79 3.59 3.05 2.86 2.49 2.29 2.10 1.88 1.98 2.06 2.41 2.30 2.33 2.41 2.60 2.77 3.33 3.89 4.05 3.83 3.43 2.89 2.25 1.87 1.76 1.65 1.58 1.39 1.18 1.00 0.86 0.73 0.53
2.80 3.20 3.02 2.98 3.07 3.41 3.41 3.40 3.76 3.75 3.51 3.50 2.86 2.58 2.38 1.98 1.96 2.00 1.83 1.96 2.11 1.83 1.97 2.24 2.69 2.41 2.63 3.03 3.55 3.87 3.89 3.73 3.24 3.04 3.02 2.74 2.50 2.06 1.51 1.19 0.96 0.81 0.66
2.68 3.08 2.82 3.09 3.01 3.11 3.16 3.19 3.46 3.58 3.26 3.31 3.29 2.83 2.21 1.79 1.76 1.76 1.78 1.87 1.83 1.89 2.26 2.61 2.78 2.75 2.56 2.36 2.42 2.93 3.66 4.04 3.70 3.37 3.44 3.46 3.36 2.76 1.97 1.51 1.17 0.92 0.78
2.53 2.68 2.87 2.75 2.77 2.94 2.96 3.00 3.28 3.25 2.88 2.99 3.22 3.24 2.62 2.27 1.82 1.40 1.70 1.80 1.80 2.05 2.18 2.25 2.59 2.88 2.84 2.98 2.34 2.12 2.78 3.51 3.73 3.53 3.36 3.51 3.52 2.90 2.22 1.91 1.53 1.17 0.99
2.36 2.43 2.60 2.61 2.60 2.51 2.71 2.90 2.85 2.86 2.76 2.72 2.82 3.20 2.92 2.50 2.06 1.58 1.43 1.53 1.78 1.99 2.01 2.15 2.18 2.41 2.51 2.93 2.87 2.35 2.16 2.40 3.05 3.69 3.72 3.57 3.38 2.87 2.44 2.24 1.99 1.59 1.33
2.14 2.16 2.22 2.22 2.27 2.27 2.54 2.35 2.38 2.62 2.79 2.65 2.62 2.61 2.67 2.73 2.58 1.99 1.52 1.46 1.68 1.83 1.83 1.78 1.92 2.14 2.16 2.37 2.54 2.30 2.00 1.83 2.16 2.90 3.48 3.55 3.28 2.78 2.50 2.49 2.62 2.39 1.87
2.01 1.91 2.04 2.08 2.08 2.06 2.16 2.21 2.47 2.46 2.55 2.51 2.48 2.48 2.62 2.66 2.49 2.29 1.92 1.76 1.71 1.53 1.55 1.64 1.76 1.97 2.10 2.19 2.38 2.20 2.19 1.87 1.85 2.04 2.51 2.94 3.07 2.95 2.65 2.66 3.02 3.15 2.80
1.83 1.81 1.89 2.02 1.98 1.95 2.08 2.14 2.21 2.23 2.29 2.36 2.30 2.29 2.51 2.41 2.34 2.43 2.11 1.94 1.85 1.58 1.56 1.60 1.62 1.76 1.84 1.91 1.79 1.92 1.89 1.67 1.59 1.55 1.59 1.91 2.30 2.53 2.60 2.76 3.13 3.40 3.41
1.59 1.58 1.69 1.83 1.80 1.79 1.91 2.02 2.02 2.12 2.20 2.22 2.14 2.15 2.20 2.15 2.19 2.34 2.40 2.16 1.98 1.69 1.67 1.59 1.53 1.67 1.61 1.83 1.80 1.63 1.40 1.33 1.24 1.18 1.20 1.31 1.51 1.75 1.96 2.25 2.68 3.05 3.25
1.43 1.51 1.59 1.59 1.63 1.67 1.70 1.98 2.01 2.07 2.13 2.09 1.96 2.24 2.16 1.95 2.04 2.21 2.40 2.59 2.43 2.04 1.98 1.80 1.57 1.51 1.60 1.69 1.63 1.43 1.15 1.11 1.03 1.01 0.99 1.03 1.15 1.27 1.41 1.58 1.87 2.12 2.36
1.64 1.66 1.65 1.65 1.69 1.78 1.91 2.13 2.17 2.14 2.19 2.14 2.17 2.30 2.15 1.95 1.95 1.99 2.31 2.62 2.79 2.46 2.17 1.96 1.78 1.51 1.53 1.45 1.44 1.31 1.29 1.17 0.97 0.93 0.91 0.86 0.91 1.02 1.13 1.21 1.30 1.45 1.55
1.85 1.82 1.84 1.82 1.76 1.83 2.02 2.17 2.19 2.17 2.22 2.24 2.28 2.40 2.38 2.20 2.16 2.14 2.34 2.58 2.76 2.79 2.36 2.03 1.97 1.70 1.57 1.32 1.38 1.24 1.19 1.21 1.00 0.89 0.90 0.84 0.83 0.86 0.90 0.96 1.01 1.06 1.15
1.75 1.69 1.66 1.66 1.67 1.73 1.82 1.88 1.85 1.88 1.89 1.98 1.97 2.12 2.22 2.32 2.29 2.29 2.40 2.50 2.70 2.88 2.49 2.27 2.35 2.17 1.93 1.68 1.51 1.38 1.22 1.16 1.04 0.95 0.84 0.83 0.83 0.85 0.89 0.92 0.91 0.94 0.99
1.44 1.36 1.41 1.44 1.44 1.44 1.50 1.47 1.46 1.56 1.71 1.86 1.95 2.05 1.96 2.02 2.07 2.13 2.26 2.43 2.64 2.85 2.70 2.61 2.71 2.64 2.38 2.03 1.86 1.71 1.37 1.18 1.09 1.08 0.93 0.82 0.84 0.86 0.86 0.91 0.92 0.92 0.92
1.14 1.15 1.23 1.28 1.28 1.28 1.25 1.25 1.34 1.44 1.57 1.72 1.81 1.80 1.70 1.76 1.79 1.95 2.03 2.19 2.41 2.64 2.70 2.66 2.77 2.77 2.58 2.36 2.26 1.90 1.63 1.56 1.27 1.22 1.11 0.93 0.84 0.84 0.88 0.88 0.89 0.91 0.91
1.07 1.12 1.23 1.29 1.27 1.32 1.36 1.48 1.56 1.58 1.63 1.63 1.58 1.53 1.47 1.52 1.62 1.81 1.88 1.93 2.08 2.29 2.42 2.51 2.70 2.75 2.66 2.58 2.51 2.15 1.93 1.83 1.59 1.32 1.26 1.05 0.94 0.87 0.84 0.82 0.85 0.90 0.97
1.11 1.17 1.29 1.38 1.44 1.40 1.32 1.48 1.61 1.56 1.58 1.55 1.44 1.28 1.17 1.24 1.33 1.47 1.43 1.64 1.84 2.03 2.13 2.28 2.49 2.72 2.58 2.55 2.41 2.26 2.07 2.00 1.87 1.60 1.53 1.25 1.08 0.94 0.80 0.77 0.78 0.86 1.01
1.18 1.17 1.18 1.27 1.24 1.04 1.13 1.28 1.39 1.42 1.50 1.51 1.37 1.22 1.10 1.08 1.14 1.21 1.23 1.30 1.47 1.67 1.85 2.12 2.32 2.50 2.38 2.32 2.42 2.41 2.33 2.11 2.01 1.86 1.95 1.81 1.56 1.40 1.13 0.88 0.84 0.87 1.00
1.17 1.21 1.20 1.21 1.17 1.11 1.17 1.16 1.15 1.25 1.36 1.36 1.39 1.37 1.14 0.94 1.07 1.05 1.12 1.11 1.18 1.29 1.47 1.76 1.95 2.06 2.21 2.20 2.44 2.52 2.61 2.48 2.32 2.20 2.36 2.36 2.20 2.02 1.41 1.19 1.13 0.96 0.93
1.20 1.23 1.23 1.20 1.26 1.25 1.23 1.10 1.10 1.11 1.24 1.33 1.32 1.26 1.24 1.18 1.10 1.06 1.11 1.13 1.03 1.05 1.15 1.19 1.36 1.67 2.17 2.44 2.46 2.50 2.71 2.69 2.48 2.38 2.49 2.61 2.39 2.30 1.83 1.40 1.17 0.91 0.82
1.22 1.21 1.20 1.15 1.18 1.26 1.25 1.11 1.06 1.04 1.19 1.29 1.29 1.23 1.17 1.17 1.16 1.03 1.06 1.09 1.04 0.99 1.03 1.14 1.25 1.46 1.71 2.03 2.22 2.28 2.37 2.51 2.57 2.52 2.53 2.66 2.57 2.46 2.44 2.12 1.54 1.18 0.91
1.35 1.31 1.25 1.20 1.18 1.22 1.19 0.99 0.94 0.92 1.05 1.14 1.23 1.15 1.02 0.94 0.97 0.92 1.01 1.09 1.01 0.99 1.05 1.08 1.09 1.18 1.32 1.49 1.57 1.56 1.68 1.86 2.04 2.20 2.15 2.37 2.63 2.71 2.90 2.84 2.32 1.71 1.32